DW0731 Scarsdale NY US current weather conditions

sailwx.info

Wind from 069

Air temperature 15.6° C
Dewpoint -40.5° C

Last reported at 2020-Sep-26 06:00 UTC.
Time now 2020-Sep-26 06:49 UTC

Location: N 40°59' W 073°46'.
View on Google Maps.

See reports from other nearby stations

  
Tides and Currents Weather Stations Pressure Air Temp Water Temp Dewpoint Dewpoint Depression Visibility Wind Speed Wind Dir Waves Ship Positions
date/time (UTC)wind fromknots sea level pressurealtimeterstation pressurevisibilityair tempwater tempwave heightnotes
2020-Sep-26 06:00 069 15.6
2020-Sep-26 05:46 202 15.6
2020-Sep-26 05:30 202 15.6
2020-Sep-26 05:15 202 15.6
2020-Sep-26 05:00 202 15.6
2020-Sep-26 04:47 202 15.6
2020-Sep-26 04:31 202 15.6
2020-Sep-26 04:16 202 16.1
2020-Sep-26 04:01 202 16.1
2020-Sep-26 03:46 202 16.1
2020-Sep-26 03:31 202 16.7
2020-Sep-26 03:16 202 16.7
2020-Sep-26 03:01 202 16.7
2020-Sep-26 02:46 202 17.2
2020-Sep-26 02:31 202 17.2
2020-Sep-26 02:15 202 17.2
2020-Sep-26 02:00 202 17.8
2020-Sep-26 01:45 202 17.8
2020-Sep-26 01:30 202 18.3
2020-Sep-26 01:17 202 18.3
2020-Sep-26 01:01 202 18.3
2020-Sep-26 00:46 202 18.9
2020-Sep-26 00:31 202 18.9
2020-Sep-26 00:16 202 19.4
2020-Sep-26 00:02 182 20.0
2020-Sep-25 23:46 191 20.0
2020-Sep-25 23:31 201 20.6
2020-Sep-25 23:16 188 21.1
2020-Sep-25 23:00 188 21.1
2020-Sep-25 22:46 206 21.7
2020-Sep-25 22:30 191 22.2
2020-Sep-25 22:15 188 22.8
2020-Sep-25 22:00 217 23.3
2020-Sep-25 21:45 209 23.3
2020-Sep-25 21:31 163 24.4
2020-Sep-25 21:16 176 25.0
2020-Sep-25 21:02 142 25.6
2020-Sep-25 20:46 219 25.6
2020-Sep-25 20:31 197 26.1
2020-Sep-25 20:16 119 26.7
2020-Sep-25 20:01 192 26.7
2020-Sep-25 19:45 140 26.7
2020-Sep-25 19:30 138 26.1
2020-Sep-25 19:15 130 25.6
2020-Sep-25 19:00 086 25.6
2020-Sep-25 18:45 142 25.6
2020-Sep-25 18:30 195 25.6
2020-Sep-25 18:15 094 25.0
2020-Sep-25 18:02 183 26.1
2020-Sep-25 17:46 229 26.1
2020-Sep-25 17:33 191 26.7
2020-Sep-25 17:16 282 26.7
2020-Sep-25 17:01 210 26.1
2020-Sep-25 16:46 206 26.1
2020-Sep-25 16:31 157 25.6
2020-Sep-25 16:15 221 25.0
2020-Sep-25 16:01 196 24.4
2020-Sep-25 15:46 173 23.9
2020-Sep-25 15:30 207 23.9
2020-Sep-25 15:15 192 23.9
2020-Sep-25 15:00 195 23.3
2020-Sep-25 14:47 192 22.2
2020-Sep-25 14:32 172 21.7
2020-Sep-25 14:18 277 21.1
2020-Sep-25 14:01 273 20.0
2020-Sep-25 13:47 213 18.3
2020-Sep-25 13:32 213 17.8
2020-Sep-25 13:16 260 16.7
2020-Sep-25 13:01 279 16.1
2020-Sep-25 12:45 279 15.6
2020-Sep-25 12:30 279 15.0
2020-Sep-25 12:15 279 14.4
2020-Sep-25 12:00 202 13.9
2020-Sep-25 11:45 202 12.8
2020-Sep-25 11:30
2020-Sep-25 11:17
2020-Sep-25 11:02
2020-Sep-25 10:47
2020-Sep-25 10:31
2020-Sep-25 10:16
2020-Sep-25 10:01
2020-Sep-25 09:46
2020-Sep-25 09:31
2020-Sep-25 09:15
2020-Sep-25 09:00
2020-Sep-25 08:45
2020-Sep-25 08:30 202 13.3
2020-Sep-25 08:15 202 13.3
2020-Sep-25 08:00 202 13.3
2020-Sep-25 07:46 202 13.3
2020-Sep-25 07:32 202 13.3
2020-Sep-25 07:16 202 13.9
2020-Sep-25 07:01 202 13.9
2020-Sep-25 06:46 202 14.4
2020-Sep-25 06:30 202 14.4
2020-Sep-25 06:16 202 14.4
2020-Sep-25 06:00 202 15.0
2020-Sep-25 05:45 202 15.0
2020-Sep-25 05:30 202 15.6
2020-Sep-25 05:15 202 15.6
2020-Sep-25 05:00 202 15.6
2020-Sep-25 04:45 202 16.1
2020-Sep-25 04:31 202 16.7
2020-Sep-25 04:17 202 16.7
2020-Sep-25 04:01 202 17.2
2020-Sep-25 03:48 202 17.2
2020-Sep-25 03:31 202 17.8
2020-Sep-25 03:16 202 17.8
2020-Sep-25 03:01 202 17.8
2020-Sep-25 02:46 202 17.8
2020-Sep-25 02:30 202 18.3
2020-Sep-25 02:15 202 18.3
2020-Sep-25 02:00 202 18.3
2020-Sep-25 01:45 202 18.9
2020-Sep-25 01:30 202 19.4
2020-Sep-25 01:15 202 20.0
2020-Sep-25 00:47 202 20.0
2020-Sep-25 00:31 202 20.6
2020-Sep-25 00:16 202 21.1
2020-Sep-25 00:02 202 21.1
2020-Sep-24 23:46 202 21.1
2020-Sep-24 23:31 207 21.1
2020-Sep-24 23:15 211 21.7
2020-Sep-24 23:01 209 21.7
2020-Sep-24 22:45 232 22.2
2020-Sep-24 22:30 211 22.8
2020-Sep-24 22:16 200 22.8
2020-Sep-24 22:01 221 23.3
2020-Sep-24 21:45 213 23.9
2020-Sep-24 21:30 228 23.9
2020-Sep-24 21:15 242 23.9
2020-Sep-24 21:00 192 24.4
2020-Sep-24 20:45 232 25.0
2020-Sep-24 20:30 227 23.9
2020-Sep-24 20:18 232 24.4
2020-Sep-24 20:03 217 24.4
2020-Sep-24 19:46 208 25.0
2020-Sep-24 19:32 238 25.0
2020-Sep-24 19:16 188 24.4
2020-Sep-24 19:01 196 23.9
2020-Sep-24 18:46 202 23.3
2020-Sep-24 18:31 245 23.3
2020-Sep-24 18:15 219 23.9
2020-Sep-24 18:01 204 23.9
2020-Sep-24 17:45 198 23.3
2020-Sep-24 17:30 200 23.9
2020-Sep-24 17:15 260 23.9
2020-Sep-24 17:00 260 23.9
2020-Sep-24 16:46 217 23.9
2020-Sep-24 16:31 223 23.3
2020-Sep-24 16:17 197 23.3
2020-Sep-24 16:02 282 22.8
2020-Sep-24 15:46 238 22.8
2020-Sep-24 15:31 183 22.2
2020-Sep-24 15:16 260 21.7
2020-Sep-24 15:00 253 20.6
2020-Sep-24 14:45 260 20.0
2020-Sep-24 14:30 227 19.4
2020-Sep-24 14:15 223 19.4
2020-Sep-24 14:00 269 18.9
2020-Sep-24 13:45 268 18.3
2020-Sep-24 13:32 238 17.8
2020-Sep-24 13:17 273 17.2
2020-Sep-24 13:01 273 16.1
2020-Sep-24 12:46 273 15.6
2020-Sep-24 12:32 273 15.0
2020-Sep-24 12:15 273 14.4
2020-Sep-24 12:01 273 13.3
2020-Sep-24 11:46 273 13.3
2020-Sep-24 11:30
2020-Sep-24 11:15
2020-Sep-24 11:00
2020-Sep-24 10:45
2020-Sep-24 10:30
2020-Sep-24 10:17
2020-Sep-24 10:01
2020-Sep-24 09:47
2020-Sep-24 09:31
2020-Sep-24 09:16
2020-Sep-24 09:01 273 11.7
2020-Sep-24 08:46 273 12.2
2020-Sep-24 08:30 273 12.2
2020-Sep-24 08:16 273 12.8
2020-Sep-24 08:00 273 12.8
2020-Sep-24 07:45 273 12.8
2020-Sep-24 07:30 273 12.8
2020-Sep-24 07:15 273 12.8
2020-Sep-24 07:00 273 13.3
2020-Sep-24 06:46 273 13.3
2020-Sep-24 06:32 273 13.3
2020-Sep-24 06:16 273 13.9
2020-Sep-24 06:01 273 13.9